#timestamp,LO_Frequency,Hit,StdDev 
1681383615.4,286047002.4,N
1681383635.2,286047000.7,N
1681383655.0,286047000.5,N
1681383655.9,286047000.5,N
1681383675.8,286047002.4,N
1681383695.6,286047002.5,N
1681383715.4,286046998.2,N
1681383735.3,286046999.0,N
1681383755.1,286047001.7,N
1681383775.9,286046999.7,N
1681383795.7,286047000.8,N
1681383815.5,286046998.1,N
1681383835.4,286046998.8,N
1681383855.2,286046996.9,N
1681383875.1,286046997.7,N
1681383876.0,286046997.7,N
1681383895.8,286046995.1,N
1681383915.6,286046995.1,N
1681383935.5,286046997.4,N
1681383955.3,286046997.3,N
1681383975.1,286046997.2,N
1681383995.9,286046998.0,N
1681384015.7,286046994.2,N
1681384035.5,286046996.2,N
1681384055.4,286046995.6,N
1681384075.2,286046994.9,N
1681384095.1,286046995.6,N
1681384096.0,286046995.6,N
1681384115.8,286046995.6,N
1681384135.6,286046995.4,N
1681384155.5,286046997.6,N
1681384175.3,286046997.9,N
1681384195.1,286046995.6,N
1681384215.9,286046996.1,N
1681384235.7,286046996.0,N
1681384255.6,286046996.4,N
1681384275.4,286046995.7,N
1681384295.2,286046995.4,N
1681384315.1,286046998.0,N
1681384316.0,286046998.0,N
1681384335.8,286046996.6,N
1681384355.7,286046997.2,N
1681384375.5,286046995.0,Y
1681384395.3,286047000.6,P
1681384415.2,286047000.0,N
1681384435.0,286047000.9,N
1681384435.9,286047000.9,N
1681384455.8,286047002.3,N
1681384475.6,286047000.5,N
1681384495.4,286047002.5,N
1681384515.3,286047000.0,N
1681384535.1,286047002.8,N
1681384555.8,286047002.2,N
1681384575.7,286047001.7,N
1681384595.5,286047001.7,N
1681384615.4,286047002.1,N
1681384635.2,286047003.7,N
1681384655.0,286047000.1,N
1681384655.9,286047000.1,N
1681384675.8,286047002.5,N
1681384695.6,286047001.6,N
1681384715.5,286047002.6,N
1681384735.3,286047002.2,N
1681384755.1,286047002.1,N
1681384775.9,286046999.7,N
1681384795.7,286047000.5,N
1681384815.5,286047000.4,N
1681384835.4,286047000.7,N
1681384855.2,286046998.9,N
1681384875.1,286046999.3,N
1681384876.0,286046999.3,N
1681384895.8,286046999.5,N
1681384915.6,286046999.4,N
1681384935.5,286046999.1,N
1681384955.3,286046999.0,N
1681384975.2,286046996.6,N
1681384995.9,286046996.9,N
1681385015.7,286047000.9,N
1681385035.6,286046998.3,N
1681385055.4,286046997.7,N
1681385075.2,286046996.9,N
1681385095.1,286046996.8,N
1681385096.0,286046996.8,N
1681385115.8,286046997.2,N
1681385135.6,286046998.0,N
1681385155.5,286046994.9,N
1681385175.3,286046993.4,Y
1681385195.2,286046995.5,P
1681385215.9,286046995.1,N
1681385235.7,286046995.2,N
1681385255.6,286046995.4,N
1681385275.4,286046997.6,N
1681385295.2,286046997.2,N
1681385315.1,286046998.0,N
1681385316.0,286046998.0,N
1681385335.8,286046997.4,N
1681385355.7,286046997.8,N
1681385375.5,286046997.7,N
1681385395.3,286046996.6,N
1681385415.2,286046999.4,N
1681385435.0,286046998.7,N
1681385435.9,286046998.7,N
1681385455.7,286046999.6,N
1681385475.6,286046997.9,N
1681385495.4,286046995.7,Y
1681385515.3,286046996.7,P
1681385535.1,286046996.7,P
1681385536.0,286046996.7,P
1681385555.8,286046998.2,Y
1681385575.7,286047002.4,P
1681385595.5,286047002.3,N
1681385615.4,286047000.1,N
1681385635.2,286047002.1,N
1681385655.0,286047004.4,N
1681385655.9,286047004.4,N
1681385675.8,286047001.6,N
1681385695.6,286046999.9,N
1681385715.4,286047002.8,N
1681385735.3,286047005.1,N
1681385755.1,286047004.6,N
1681385775.9,286047004.5,N
1681385795.7,286047006.6,N
1681385815.5,286047009.2,Y
1681385835.4,286047009.1,P
1681385855.2,286047008.8,N
1681385875.0,286047006.4,N
1681385875.9,286047006.4,N
1681385895.8,286047006.4,N
1681385915.6,286047005.0,N
1681385935.5,286047003.8,N
1681385955.3,286047003.7,N
1681385975.1,286047005.9,N
1681385995.9,286047003.0,N
1681386015.7,286047001.3,N
1681386035.5,286047002.8,N
1681386055.4,286047001.1,N
1681386075.2,286046999.3,N
1681386095.0,286046999.2,N
1681386096.0,286046999.2,N
1681386115.8,286046997.0,N
1681386135.6,286046997.9,N
1681386155.5,286046995.3,N
1681386175.3,286046995.8,N
1681386195.1,286046993.5,N
1681386215.9,286046994.2,N
1681386235.7,286046994.4,N
1681386285.6,286046993.0,E
1681386295.5,286046993.8,N
1681386315.3,286046999.2,P
1681386335.2,286046996.9,N
1681386355.0,286046996.5,N
1681386355.9,286046996.5,N
1681386375.8,286046996.8,N
1681386395.6,286047001.2,N
1681386415.4,286047002.7,N
1681386435.3,286047001.8,N
1681386455.1,286047005.7,N
1681386475.8,286047005.4,N
1681386495.7,286047005.5,N
1681386515.5,286047006.3,N
1681386535.4,286047008.7,N
1681386555.2,286047007.1,N
1681386575.0,286047006.6,N
1681386575.9,286047006.6,N
1681386595.8,286047008.6,N
1681386615.6,286047009.1,N
1681386635.5,286047008.8,N
1681386655.3,286047009.0,N
1681386675.1,286047008.2,N
1681386695.9,286047008.0,N
1681386715.7,286047010.4,N
1681386735.5,286047010.7,N
1681386755.4,286047008.6,N
1681386775.2,286047007.8,N
1681386795.1,286047007.1,N
1681386796.0,286047007.1,N
1681386815.8,286047006.2,N
1681386835.6,286047006.1,N
1681386855.5,286047006.2,N
1681386875.3,286047007.2,N
1681386895.1,286047005.9,N
1681386915.9,286047003.1,N
1681386935.7,286047005.7,N
1681386955.6,286047005.1,N
1681386975.4,286047005.7,N
1681386995.2,286047003.8,N
1681387015.1,286047002.2,N
1681387016.0,286047002.2,N
1681387035.8,286047002.2,N
1681387055.6,286047004.1,N
1681387075.5,286047003.8,N
1681387095.3,286047001.7,N
1681387115.2,286047001.7,N
1681387135.9,286047004.1,N
1681387155.7,286047003.8,N
1681387175.6,286047003.1,N
1681387195.4,286047004.5,N
